Precipitable_Water
1.37 1.50 1.54 1.40 1.35 1.33 1.33 1.20 1.06 1.15 1.24 1.40 1.42 1.26 1.26 1.29 1.37 1.63 1.89 1.84 1.76 1.49 1.02 0.82 0.82 0.94 0.95 1.04 1.11 1.15 1.11 1.05 1.09 1.06 1.03 1.11 1.25 1.22 1.11 0.93 0.94 0.93 0.98
1.42 1.51 1.51 1.42 1.36 1.36 1.34 1.13 1.16 1.01 1.22 1.38 1.48 1.61 1.59 1.66 1.87 1.93 1.85 1.72 1.35 0.99 0.86 0.91 0.97 0.99 1.04 1.06 1.08 1.08 1.02 0.92 0.90 0.95 0.99 1.11 1.20 1.20 1.12 1.06 1.11 1.13 1.13
1.41 1.47 1.45 1.40 1.36 1.39 1.30 1.17 1.16 1.17 1.16 1.34 1.53 1.64 1.75 1.84 1.85 1.75 1.53 1.14 1.00 0.89 0.90 1.02 1.01 1.02 1.03 1.04 1.04 1.00 0.98 0.94 0.89 0.84 0.92 0.95 1.05 1.14 1.14 1.13 1.09 1.15 1.23
1.42 1.44 1.40 1.38 1.44 1.39 1.24 1.15 1.03 1.11 1.10 1.23 1.40 1.52 1.57 1.59 1.47 1.22 1.08 0.95 0.90 0.89 0.99 1.01 1.01 1.03 1.04 1.07 1.04 1.01 1.03 0.99 0.90 0.81 0.84 0.88 0.93 1.02 1.08 1.10 1.08 1.08 1.12
1.43 1.44 1.41 1.44 1.44 1.29 1.21 1.08 0.97 0.96 0.91 1.05 1.16 1.23 1.24 1.22 1.14 0.98 0.91 0.90 0.88 0.94 0.96 0.96 0.99 1.04 1.08 1.09 1.08 1.08 1.05 0.99 0.88 0.85 0.85 0.86 0.88 0.91 0.92 0.97 0.97 0.96 1.08
1.44 1.47 1.43 1.52 1.37 1.24 1.19 1.07 1.08 1.10 0.92 0.81 0.85 0.92 0.94 0.94 0.91 0.93 0.94 0.90 0.86 0.90 0.96 1.00 1.06 1.09 1.13 1.10 1.09 1.09 1.05 0.99 0.96 0.92 0.94 0.97 0.99 0.99 0.94 0.90 0.90 0.93 0.97
1.43 1.44 1.50 1.46 1.32 1.18 1.17 1.07 1.23 1.10 1.04 0.88 0.87 0.91 0.93 0.98 0.97 0.95 0.92 0.87 0.90 0.93 1.02 1.06 1.09 1.11 1.12 1.10 1.08 1.07 1.05 1.03 1.04 1.00 0.99 1.02 1.04 1.02 0.99 0.95 0.90 0.87 0.90
1.42 1.49 1.50 1.44 1.24 1.12 1.11 1.09 1.24 1.28 1.15 0.98 0.90 0.94 0.95 1.03 0.95 0.93 0.93 0.92 0.95 0.98 1.00 1.04 1.07 1.08 1.09 1.08 1.07 1.07 1.06 1.03 1.04 1.04 1.06 1.05 1.04 1.01 0.98 0.95 0.93 0.90 0.88
1.49 1.48 1.49 1.42 1.25 1.18 1.10 1.09 1.18 1.32 1.25 1.07 0.92 0.90 0.95 0.97 0.98 0.97 0.96 0.96 0.99 0.99 1.00 1.01 1.03 1.04 1.02 1.00 1.00 1.03 1.04 1.03 1.04 1.06 1.07 1.10 1.08 1.01 0.98 0.97 0.96 0.94 0.92
1.54 1.53 1.50 1.43 1.32 1.23 1.21 1.10 1.14 1.27 1.35 1.19 1.08 0.94 0.92 0.94 0.97 0.97 0.98 1.00 1.00 0.98 0.98 0.98 0.96 0.95 0.94 0.92 0.93 0.98 1.00 1.04 1.05 1.07 1.08 1.08 1.08 1.04 1.00 1.00 1.01 1.01 0.98
1.55 1.55 1.53 1.43 1.43 1.32 1.27 1.22 1.15 1.27 1.40 1.37 1.26 1.13 1.01 0.96 0.97 0.97 0.96 0.98 0.98 0.97 0.97 0.95 0.94 0.91 0.88 0.87 0.87 0.89 0.97 0.97 0.97 1.02 1.07 1.05 1.09 1.09 1.06 1.04 1.05 1.06 1.05
1.48 1.55 1.57 1.48 1.49 1.35 1.27 1.22 1.19 1.26 1.39 1.43 1.35 1.23 1.15 1.09 1.02 0.98 0.96 0.95 0.95 0.95 0.95 0.94 0.92 0.89 0.89 0.91 0.93 0.92 0.93 0.93 0.92 0.95 1.02 1.03 1.08 1.10 1.12 1.11 1.10 1.11 1.11
1.67 1.67 1.60 1.54 1.47 1.34 1.25 1.23 1.24 1.23 1.34 1.43 1.36 1.28 1.22 1.19 1.15 1.11 1.05 1.02 1.01 0.98 0.94 0.93 0.89 0.86 0.91 0.94 0.93 0.92 0.94 0.95 0.95 0.94 0.97 1.01 1.07 1.10 1.12 1.14 1.18 1.18 1.19
1.55 1.69 1.75 1.70 1.46 1.35 1.31 1.25 1.30 1.22 1.27 1.32 1.37 1.31 1.24 1.21 1.19 1.20 1.13 1.02 0.95 0.95 0.91 0.97 0.97 0.97 0.96 0.98 0.99 0.98 0.98 0.99 0.97 0.96 0.98 1.02 1.10 1.16 1.19 1.20 1.20 1.22 1.24
1.30 1.44 1.73 1.66 1.63 1.41 1.34 1.27 1.34 1.31 1.23 1.30 1.36 1.32 1.30 1.26 1.23 1.20 1.13 1.09 1.02 0.98 0.96 0.96 0.98 1.00 1.00 1.02 1.05 1.04 1.01 1.01 1.01 1.04 1.08 1.11 1.18 1.20 1.21 1.22 1.22 1.20 1.19
1.35 1.35 1.62 1.61 1.66 1.60 1.41 1.34 1.25 1.30 1.28 1.28 1.28 1.30 1.26 1.24 1.21 1.18 1.17 1.12 1.06 1.01 0.98 0.95 0.95 1.01 1.04 1.04 1.03 1.05 1.05 1.08 1.10 1.13 1.17 1.19 1.21 1.22 1.21 1.20 1.18 1.21 1.21
1.39 1.38 1.36 1.55 1.71 1.69 1.51 1.41 1.38 1.38 1.35 1.32 1.32 1.35 1.30 1.24 1.21 1.19 1.15 1.10 1.07 1.07 1.01 0.97 1.00 1.06 1.06 1.08 1.07 1.10 1.13 1.15 1.15 1.17 1.20 1.22 1.22 1.25 1.27 1.18 1.19 1.16 1.28
1.32 1.33 1.33 1.43 1.62 1.71 1.73 1.61 1.50 1.46 1.44 1.44 1.46 1.47 1.44 1.34 1.27 1.19 1.13 1.10 1.10 1.09 1.04 1.04 1.06 1.06 1.07 1.08 1.09 1.11 1.11 1.11 1.12 1.13 1.15 1.19 1.22 1.24 1.20 1.10 1.14 1.18 1.14
1.36 1.38 1.36 1.34 1.46 1.56 1.60 1.84 1.76 1.73 1.61 1.53 1.51 1.49 1.50 1.43 1.36 1.23 1.17 1.17 1.19 1.17 1.14 1.15 1.16 1.17 1.13 1.13 1.10 1.10 1.07 1.11 1.10 1.11 1.10 1.15 1.21 1.16 1.14 1.15 1.14 1.12 1.14
1.41 1.46 1.48 1.52 1.53 1.62 1.71 1.71 1.60 1.85 1.77 1.72 1.62 1.56 1.53 1.50 1.45 1.31 1.26 1.22 1.24 1.26 1.26 1.25 1.20 1.22 1.16 1.12 1.06 1.08 1.10 1.09 1.04 1.01 1.04 1.08 1.10 1.10 1.12 1.14 1.16 1.17 1.15
1.42 1.43 1.50 1.53 1.54 1.67 1.59 1.51 1.41 1.57 1.69 1.74 1.68 1.59 1.58 1.54 1.49 1.42 1.37 1.32 1.30 1.23 1.17 1.20 1.14 1.13 1.08 1.13 1.04 0.90 0.91 0.92 0.93 0.94 0.98 0.95 0.93 0.99 1.08 1.16 1.15 1.15 1.17
1.32 1.36 1.45 1.46 1.48 1.52 1.52 1.44 1.53 1.51 1.51 1.66 1.73 1.73 1.74 1.71 1.62 1.54 1.46 1.34 1.30 1.29 1.28 1.25 1.17 1.07 1.06 1.05 0.89 0.89 0.74 0.79 0.85 0.92 0.95 0.93 0.95 1.01 1.07 1.09 1.14 1.10 1.07
1.19 1.28 1.35 1.40 1.50 1.52 1.52 1.49 1.57 1.57 1.64 1.59 1.58 1.51 1.64 1.60 1.73 1.62 1.60 1.54 1.52 1.43 1.27 1.22 1.19 1.08 0.98 1.05 1.08 0.96 0.77 0.67 0.80 0.91 0.92 0.94 0.92 0.99 1.02 1.05 1.08 1.06 1.04
0.92 1.12 1.31 1.34 1.35 1.44 1.53 1.50 1.51 1.41 1.35 1.47 1.48 1.54 1.58 1.58 1.57 1.58 1.53 1.52 1.49 1.42 1.32 1.25 1.19 1.13 1.08 0.93 0.99 0.98 0.95 0.90 0.72 0.64 0.82 0.86 0.90 0.91 0.96 0.98 0.99 1.00 1.00
0.90 0.90 1.02 1.31 1.37 1.41 1.45 1.45 1.44 1.45 1.43 1.45 1.51 1.49 1.43 1.45 1.54 1.54 1.51 1.40 1.36 1.31 1.23 1.08 0.97 0.90 0.90 0.85 0.82 0.81 0.80 0.77 0.78 0.71 0.61 0.69 0.82 0.88 0.95 0.95 0.94 0.98 0.98
0.81 0.87 0.91 1.01 1.23 1.34 1.42 1.44 1.45 1.42 1.41 1.40 1.39 1.37 1.37 1.40 1.45 1.40 1.30 1.26 1.17 1.03 0.93 0.90 0.89 0.89 0.87 0.86 0.84 0.82 0.77 0.70 0.68 0.67 0.65 0.69 0.70 0.81 0.89 0.95 0.98 0.95 0.95
Wind_Speed
18 17 16 14 12 10 9 8 8 8 9 9 10 11 12 12 11 10 9 8 6 5 5 6 7 8 9 10 10 10 11 12 12 12 12 12 12 12 12 12 12 12 12
19 19 17 15 13 11 10 9 9 10 10 10 11 12 12 12 12 10 9 7 5 5 6 7 8 9 9 9 9 9 10 11 11 11 11 12 13 12 13 12 13 13 13
20 19 17 16 14 12 11 11 11 11 12 11 11 12 12 12 11 9 6 5 6 6 7 8 8 9 9 9 9 9 9 9 10 11 11 11 12 13 13 13 13 14 14
21 20 18 16 15 13 12 12 12 11 12 12 11 11 11 10 8 7 6 6 7 8 8 8 8 9 9 9 9 9 10 10 10 10 11 11 11 12 12 13 13 14 14
22 20 19 17 16 14 14 13 13 12 12 12 11 11 10 9 8 7 8 8 8 8 8 8 9 9 9 8 8 9 9 9 9 10 10 10 11 11 12 12 12 13 13
22 21 19 18 17 15 15 15 14 13 12 12 11 11 10 10 9 9 9 8 8 8 8 8 8 8 7 7 7 7 7 7 8 9 9 10 10 11 12 12 12 13 13
23 22 20 19 17 17 16 16 15 14 13 12 12 11 11 10 10 9 9 8 8 8 7 7 7 6 5 5 5 5 5 6 6 8 9 9 10 11 12 12 13 13 13
24 22 21 20 18 18 17 17 16 15 13 12 12 12 11 10 10 9 9 8 8 7 6 6 5 4 3 2 3 4 4 5 6 7 8 9 10 11 11 12 13 13 13
25 23 22 20 19 18 18 18 17 16 15 13 12 12 11 11 10 9 8 8 7 6 5 4 4 3 1 0 2 3 4 5 6 7 8 9 10 11 12 12 13 14 14
26 24 23 21 20 19 18 18 18 17 15 14 12 12 11 10 10 9 8 7 6 5 4 3 3 3 2 3 3 4 5 6 7 7 8 9 10 11 12 13 14 14 15
26 25 23 22 22 20 19 18 19 18 16 15 13 12 11 10 9 8 7 6 6 5 5 4 4 4 4 5 5 6 6 7 8 9 9 10 11 12 13 14 15 15 16
27 26 25 24 23 21 20 20 19 19 17 15 14 12 11 10 9 8 7 6 6 6 6 6 6 6 6 6 7 7 8 9 9 10 10 11 12 13 14 15 16 17 17
26 27 27 27 26 23 21 21 20 19 18 16 15 13 12 11 10 9 8 7 7 7 7 7 7 8 7 8 8 9 9 10 11 11 12 13 14 15 16 17 18 18 19
27 24 26 28 27 25 23 22 21 20 19 17 16 15 13 12 11 10 10 9 9 8 8 8 8 8 9 9 9 10 11 12 12 13 14 15 16 17 18 19 19 20 20
31 27 27 26 28 27 25 24 22 21 20 19 17 16 15 14 13 12 11 11 10 9 9 9 9 10 10 11 11 12 13 14 15 15 16 17 18 19 20 20 21 21 22
27 23 33 26 28 28 27 25 24 23 21 20 18 18 17 16 15 15 14 13 12 11 11 11 10 11 11 12 12 13 14 15 16 17 18 19 20 21 22 22 22 22 22
28 22 24 27 28 27 28 26 25 24 23 21 20 19 19 18 18 17 16 15 14 13 13 12 12 13 13 14 15 16 16 17 18 19 21 21 22 22 23 23 23 24 23
28 23 20 20 30 30 27 26 27 26 25 24 22 21 20 20 20 19 17 17 16 15 14 14 14 15 15 16 17 17 19 20 20 21 22 22 23 24 25 24 24 24 24
28 26 24 17 28 28 28 27 26 25 26 26 25 23 22 21 21 21 19 19 18 17 16 16 16 17 17 18 19 20 21 21 22 24 25 26 26 26 25 24 25 24 23
29 28 27 23 22 28 24 23 27 27 25 25 25 24 24 23 22 22 21 20 19 18 18 18 19 19 20 21 21 22 23 24 25 25 26 27 27 27 27 26 24 23 23
28 28 28 26 24 24 26 21 20 31 29 25 24 24 24 23 23 22 22 21 21 20 19 20 20 21 21 22 23 24 25 26 27 27 27 27 26 27 26 25 23 23 24
28 28 29 27 26 25 25 22 21 21 23 24 24 23 23 23 23 23 23 22 22 21 21 21 22 22 23 24 25 25 25 25 26 24 24 25 26 25 24 24 23 24 25
26 28 29 29 29 28 27 25 24 23 24 24 23 22 22 21 22 22 21 22 22 22 23 23 24 24 25 25 27 26 26 25 25 26 27 27 26 25 25 25 25 25 25
26 26 27 29 29 29 29 28 26 26 24 25 25 23 22 23 23 24 23 21 21 22 23 24 25 26 26 27 28 28 30 30 29 29 27 27 27 27 27 27 27 26 26
28 27 26 28 28 29 29 30 29 28 26 26 25 25 24 23 22 22 22 23 24 24 24 25 26 26 27 28 29 29 30 31 32 32 32 31 30 30 30 29 28 27 26
27 27 27 26 26 27 29 30 29 29 26 26 27 27 25 26 24 24 24 24 25 26 27 28 29 30 31 32 32 32 32 32 32 32 33 33 31 30 29 28 27 27 26
Wind_Direction
193 188 184 181 179 175 170 163 156 149 146 134 131 139 142 144 143 140 134 128 119 103 92 93 93 93 92 88 82 78 72 65 63 62 58 54 48 45 43 39 34 29 26
186 186 185 182 180 176 171 164 157 153 150 140 134 134 140 141 140 138 134 129 118 109 105 101 100 99 94 88 83 79 73 66 62 59 56 51 47 45 42 38 32 26 22
187 186 185 184 182 177 171 164 157 152 153 147 143 139 138 141 141 141 139 132 124 118 114 109 105 101 95 88 83 78 73 67 60 57 54 49 45 43 39 34 30 26 23
187 187 186 185 182 177 172 166 162 157 157 155 152 150 150 150 151 149 144 135 129 124 120 114 110 104 96 89 84 80 74 69 60 56 51 45 41 36 32 29 26 23 21
189 188 187 185 183 180 176 171 165 160 157 160 159 157 157 156 153 148 140 136 131 128 124 120 114 108 98 88 83 83 72 63 56 50 45 40 35 30 25 20 17 15 14
189 188 187 185 184 183 179 174 169 164 159 158 159 159 158 156 151 145 142 138 135 133 129 126 121 113 101 88 81 77 64 55 48 42 36 30 26 22 18 15 12 9 7
190 190 189 187 186 183 181 178 174 169 163 159 158 157 155 153 152 150 145 142 139 137 135 133 130 121 106 90 75 63 52 41 34 27 24 19 16 13 11 9 6 4 1
191 190 189 188 187 184 182 180 177 173 168 164 161 159 159 158 155 153 150 147 144 143 142 143 143 137 120 89 56 39 26 16 12 10 8 7 6 4 3 1 0 359 356
192 191 190 189 187 184 182 181 180 176 174 169 165 163 162 162 160 158 156 155 153 153 154 156 162 170 181 319 346 352 353 349 348 349 351 354 354 354 354 354 353 352 351
191 191 191 191 189 186 185 185 183 180 176 173 168 167 166 166 166 167 169 171 172 174 180 190 203 223 253 283 303 313 322 328 331 330 335 339 343 344 345 345 345 345 345
193 194 194 193 191 190 189 187 186 184 181 180 177 176 175 176 175 176 180 186 194 203 214 228 239 254 268 282 294 300 306 314 319 320 321 326 330 333 335 336 337 337 337
199 200 200 198 195 193 193 191 190 188 188 187 187 187 188 189 190 193 198 206 215 225 236 246 256 264 271 281 291 296 300 306 311 312 313 317 320 323 326 328 328 329 329
200 203 203 201 199 198 198 195 194 194 195 197 198 199 202 204 207 212 218 225 233 241 248 254 261 266 271 280 288 292 295 301 305 308 308 311 313 317 319 321 321 322 323
203 204 205 205 205 201 200 200 200 201 202 205 208 209 211 216 220 227 233 237 242 248 253 257 262 267 273 280 285 290 293 298 301 303 305 307 308 312 315 317 318 318 318
208 223 214 208 204 205 205 205 206 207 209 212 215 218 222 227 232 236 238 241 245 249 254 259 264 269 274 280 284 288 292 295 297 299 301 303 305 307 309 312 313 315 316
209 219 212 210 209 210 209 209 211 213 214 217 221 226 231 235 238 240 242 244 247 250 255 261 267 271 276 282 286 289 292 294 296 298 299 301 302 304 305 307 309 311 313
212 223 208 217 213 211 212 215 216 217 219 223 228 232 237 240 241 242 244 245 248 252 257 263 268 273 278 283 286 289 292 294 295 297 299 299 300 302 303 304 306 308 309
220 219 210 223 214 218 219 219 220 222 226 229 232 237 241 243 243 244 245 246 247 252 257 264 269 274 279 283 287 289 291 293 294 296 299 299 300 300 302 301 302 304 307
219 219 218 225 217 216 221 220 222 226 230 232 235 239 243 245 244 244 245 246 247 252 259 265 269 276 280 284 287 289 291 292 293 295 296 297 297 298 298 299 301 301 303
222 224 225 228 223 222 220 227 234 231 230 233 235 239 243 245 243 242 243 245 247 254 260 266 271 276 281 285 287 289 291 292 294 294 296 296 296 295 295 296 297 298 302
226 227 229 230 230 226 224 236 242 233 231 236 239 242 244 245 242 241 243 245 249 255 261 267 272 277 282 286 288 290 292 293 293 293 295 297 296 295 293 293 295 297 300
231 232 231 234 235 231 231 240 239 233 231 237 241 243 245 244 242 243 245 248 251 256 262 268 273 279 282 286 288 291 292 294 295 294 295 298 299 297 294 293 294 297 299
235 235 236 237 236 237 238 243 241 241 241 239 240 244 242 245 243 240 246 250 254 258 264 270 275 279 282 285 287 287 290 290 294 293 295 296 297 295 293 292 292 293 296
238 238 237 239 241 242 239 241 240 242 242 242 242 243 247 250 249 248 250 251 255 261 267 272 276 280 282 285 287 286 286 287 289 292 294 294 295 293 291 290 290 291 293
239 239 241 241 242 243 243 242 244 244 243 244 242 244 246 253 250 249 252 254 259 266 270 274 278 281 284 285 286 288 288 288 288 288 289 290 291 290 289 288 288 288 290
239 241 242 244 245 246 246 245 246 246 248 245 244 246 248 253 252 251 254 259 264 269 273 276 279 282 285 286 287 287 286 287 288 288 288 289 288 288 287 287 286 286 287